Printer-friendly version

IAU Minor Planet Center

Minor Planet Center

MPEC 2008-C102: 2008 CZ118

The following Minor Planet Electronic Circular may be linked-to from your own Web pages, but must not otherwise be redistributed electronically.


Read MPEC 2008-C101 Read MPEC 2008-C103


M.P.E.C. 2008-C102                               Issued 2008 Feb. 14, 20:21 UT

     The Minor Planet Electronic Circulars contain information on unusual
         minor planets and routine data on comets.  They are published
   on behalf of Commission 20 of the International Astronomical Union by the
          Minor Planet Center, Smithsonian Astrophysical Observatory,
                          Cambridge, MA 02138, U.S.A.

             Prepared using the Tamkin Foundation Computer Network

                              MPC@CFA.HARVARD.EDU
          URL http://www.cfa.harvard.edu/iau/mpc.html  ISSN 1523-6714

                                  2008 CZ118

Observations:
     K08CB8Z* C2008 02 12.34560 13 57 47.59 +35 51 34.1          18.1 V EC102703
     K08CB8Z  C2008 02 12.35058 13 57 47.16 +35 51 30.0          19.1 V EC102703
     K08CB8Z  C2008 02 12.35557 13 57 47.08 +35 51 27.7          19.1 V EC102703
     K08CB8Z  C2008 02 12.36053 13 57 46.80 +35 51 24.3          19.1 V EC102703
     K08CB8Z  C2008 02 12.36660 13 57 46.47 +35 51 20.6          19.5 V EC102703
     K08CB8Z  C2008 02 12.37189 13 57 46.26 +35 51 16.6          19.5 V EC102703
     K08CB8Z  C2008 02 12.37721 13 57 45.97 +35 51 13.8          19.7 V EC102703
     K08CB8Z  C2008 02 12.38255 13 57 45.72 +35 51 09.8          19.4 V EC102703
     K08CB8Z  C2008 02 12.42753 13 57 43.38 +35 50 39.6          19.2 V EC102703
     K08CB8Z  C2008 02 12.43404 13 57 43.09 +35 50 35.7          19.6 V EC102703
     K08CB8Z  C2008 02 12.44053 13 57 42.80 +35 50 30.7          19.0 V EC102703
     K08CB8Z  C2008 02 12.44700 13 57 42.44 +35 50 26.1          19.4 V EC102703
     K08CB8Z  C2008 02 12.97993 13 57 18.01 +35 44 05.5                 EC102621
     K08CB8Z  C2008 02 12.98759 13 57 17.63 +35 44 00.6                 EC102621
     K08CB8Z  C2008 02 12.99524 13 57 17.22 +35 43 54.9          19   R EC102621
     K08CB8Z  C2008 02 13.03810 13 57 15.07 +35 43 28.2          18.8 V EC102595
     K08CB8Z  C2008 02 13.05152 13 57 14.37 +35 43 19.3                 EC102595
     K08CB8Z  C2008 02 13.06795 13 57 13.50 +35 43 07.3                 EC102246
     K08CB8Z  C2008 02 13.06973 13 57 13.40 +35 43 06.4                 EC102246
     K08CB8Z  C2008 02 13.07065 13 57 13.35 +35 43 05.6                 EC102246
     K08CB8Z  C2008 02 13.07142 13 57 13.27 +35 43 04.8                 EC102246
     K08CB8Z  C2008 02 13.07225 13 57 13.24 +35 43 04.4                 EC102246
     K08CB8Z  C2008 02 13.39877 13 56 57.25 +35 39 17.4          19.5   EC102704
     K08CB8Z  C2008 02 13.41949 13 56 56.18 +35 39 03.3          18.9 V EC102G96
     K08CB8Z  C2008 02 13.42262 13 56 55.93 +35 39 00.9          19.6   EC102704
     K08CB8Z  C2008 02 13.42678 13 56 55.75 +35 38 58.2          19.6 V EC102G96
     K08CB8Z  C2008 02 13.43411 13 56 55.35 +35 38 52.1          18.6 V EC102G96
     K08CB8Z  C2008 02 13.43455 13 56 55.34 +35 38 52.8          19.3   EC102704
     K08CB8Z  C2008 02 13.44153 13 56 54.96 +35 38 48.1          18.8 V EC102G96
     K08CB8Z  C2008 02 14.35332213 56 07.08 +35 27 54.5          20.1 V EC102H55
     K08CB8Z  C2008 02 14.35638913 56 06.88 +35 27 52.5          19.8 V EC102H55
     K08CB8Z  C2008 02 14.37480313 56 05.75 +35 27 39.2          20.2 V EC102H55

Observer details:
246 Klet Observatory-KLENOT.  Observer M. Tichy.  1.06-m KLENOT Telescope
    + CCD.
595 Farra d'Isonzo.  Observer E. Pettarin.  0.40-m f/4.5 reflector + CCD.
621 Bergisch Gladbach.  Observer W. Bickel.  0.60-m f/5.2 reflector + CCD.
703 Catalina Sky Survey.  Observer R. E. Hill.  Measurers E. C. Beshore,
    A. Boattini, G. J. Garradd, A. R. Gibbs, A. D. Grauer, R. E. Hill,
    R. A. Kowalski, S. M. Larson, R. H. McNaught.  0.68-m Schmidt + CCD.
704 Lincoln Laboratory ETS, New Mexico.  Observers M. Bezpalko, D. Torres,
    R. Kracke, G. Spitz, J. Kistler.  Measurers J. Stuart, S. Scruggs.  1.0-m
    f/2.15 reflector + CCD.
G96 Mt. Lemmon Survey.  Observer A. D. Grauer.  Measurers E. C. Beshore,
    A. Boattini, G. J. Garradd, A. R. Gibbs, A. D. Grauer, R. E. Hill,
    R. A. Kowalski, S. M. Larson, R. H. McNaught.  1.5-m reflector + CCD.
H55 Astronomical Research Observatory, Charleston.  Observer R. Holmes.
    Measurers P. Miller, H. Devore.  0.81-m f/4.0 astrograph + CCD.

Orbital elements:
2008 CZ118                                               Earth MOID = 0.4945 AU
Epoch 2007 Oct. 27.0 TT = JDT 2454400.5                 MPC
M 339.99820              (2000.0)            P               Q
n   0.31441571     Peri.   97.37908     -0.45853528     -0.87679524
a   2.1419035      Node    21.80938     +0.58036852     -0.41887057
e   0.4013167      Incl.   22.94386     +0.67299166     -0.23617270
P   3.13           H   18.3           G   0.15           U   8
Residuals in seconds of arc
080212 703  0.6+  0.0     080212 703  0.2+  0.3-    080213 704  0.4-  0.1-
080212 703  1.6-  0.8-    080212 621  0.2-  0.2-    080213 G96  0.2-  0.1-
080212 703  0.4+  0.2+    080212 621  0.1-  0.1+    080213 704  0.2-  0.2-
080212 703  0.1-  0.1+    080212 621  0.4-  0.5-    080213 G96  0.5-  0.2-
080212 703  0.4-  0.3+    080213 595  0.2+  0.0     080213 G96  0.3-  1.2-
080212 703  0.2+  0.2-    080213 595  0.3+  0.2+    080213 704  0.9+  0.0
080212 703  0.1-  0.6+    080213 246  0.7+  0.2+    080213 G96  0.1+  0.1-
080212 703  0.1+  0.1+    080213 246  0.6+  0.5+    080214 H55  0.0   0.2+
080212 703  0.6-  0.0     080213 246  0.6+  0.3+    080214 H55  0.2-  0.4+
080212 703  0.1-  0.5+    080213 246  0.2+  0.0     080214 H55  0.3-  0.1+
080212 703  0.5+  0.1-    080213 246  0.3+  0.2+

Ephemeris:
2008 CZ118               a,e,i = 2.14, 0.40, 23                  q = 1.2823
Date    TT    R. A. (2000) Decl.     Delta      r     Elong.  Phase     V
2008 02 14    13 56.43   +35 32.2    0.557    1.356   120.2    39.0    19.2
2008 02 24    13 43.41   +33 17.4    0.533    1.389   129.1    33.6    19.1
2008 03 05    13 22.88   +30 16.9    0.519    1.426   139.3    27.0    18.9
2008 03 15    12 57.65   +26 14.1    0.520    1.467   149.6    20.1    18.7
2008 03 25    12 32.27   +21 15.2    0.543    1.511   156.6    15.2    18.7
2008 04 04    12 10.81   +15 52.3    0.590    1.557   156.0    15.1    19.0
2008 04 14    11 55.51   +10 40.6    0.660    1.606   149.1    18.7    19.4
2008 04 24    11 46.62   +06 01.2    0.752    1.656   140.3    22.8    19.9
2008 05 04    11 43.28   +01 59.4    0.861    1.706   131.6    26.2    20.3
2008 05 14    11 44.43   -01 29.5    0.984    1.758   123.5    28.7    20.8
2008 05 24    11 49.05   -04 32.3    1.118    1.809   116.1    30.2    21.1
2008 06 03    11 56.32   -07 15.6    1.261    1.860   109.2    31.0    21.5
2008 06 13    12 05.67   -09 44.6    1.410    1.912   102.8    31.2    21.8

Sonia Keys                   (C) Copyright 2008 MPC           M.P.E.C. 2008-C102

Read MPEC 2008-C101 Read MPEC 2008-C103


Our Web policy. Index to the CBAT/MPC/ICQ pages.


Valid HTML 4.01!